[[{"header":{"parameterUnit":"m.s-1","parameterCategory":2,"la1":30.2992,"la2":30.254,"lo1":-89.0895,"lo2":-89.0443,"dy":0.0025,"dx":0.0025,"nx":19,"ny":19,"refTime":"2026-04-23T09:00:00:Z","depth":"0","parameterNumber":2,"parameterNumberName":"U-component_of_CURRENTS"},"data":[0,0,0,-0.2977,-0.2978,-0.3045,-0.3045,-0.3118,-0.3119,0,0,0,0,0,0,0,0,0,0,0,-0.2938,-0.2939,-0.2976,-0.2978,-0.3045,-0.3045,-0.3118,-0.3119,0,0,0,0,0,0,0,0,0,0,0,-0.2938,-0.2939,-0.2939,-0.2979,-0.3045,-0.3045,-0.3118,-0.3069,0,0,0,0,0,0,0,0,0,0,-0.3005,-0.2963,-0.2938,-0.2939,-0.2979,-0.3045,-0.3045,-0.3067,-0.3072,-0.3086,0,-0.3092,0,-0.3117,-0.3124,-0.3124,0,0,0,-0.2972,-0.2958,-0.2992,-0.2939,-0.298,-0.3045,-0.3013,-0.307,-0.3076,-0.3093,-0.3093,-0.3096,-0.3118,-0.3124,-0.3125,-0.3215,-0.3216,0,0,-0.2968,-0.2938,-0.2987,-0.2995,-0.2991,-0.3011,-0.3015,-0.3073,-0.3068,-0.3093,-0.3098,-0.3119,-0.3125,-0.3125,-0.3215,-0.3215,0,0,0,-0.2962,-0.2935,-0.2967,-0.2991,-0.301,-0.3013,-0.3018,-0.3065,-0.3079,-0.3099,-0.312,-0.3125,-0.3126,-0.3214,-0.3215,-0.3256,0,0,0,-0.2959,-0.2933,-0.2965,-0.2947,-0.3009,-0.3039,-0.3008,-0.3075,-0.3083,-0.312,-0.3125,-0.3127,-0.3214,-0.3215,-0.3254,-0.3247,0,0,0,-0.2936,-0.2931,-0.294,-0.2945,-0.2981,-0.3038,-0.3055,-0.3077,-0.3096,-0.3124,-0.3127,-0.3214,-0.3215,-0.3252,-0.3245,-0.3248,0,0,0,-0.2903,-0.2922,-0.2938,-0.2978,-0.298,-0.307,-0.3055,-0.3107,-0.3133,-0.3126,-0.3214,-0.3215,-0.3251,-0.3243,-0.3247,-0.3042,-0.3031,0,0,-0.2915,-0.2922,-0.2953,-0.2972,-0.3058,-0.306,-0.3144,-0.316,-0.3151,-0.3192,-0.3194,-0.3254,-0.3244,-0.3248,-0.3099,-0.3086,0,0,0,-0.2952,-0.2968,-0.3,-0.3051,-0.3116,-0.3164,-0.3195,-0.3205,-0.3229,-0.3174,-0.3263,-0.3255,-0.3256,-0.313,-0.3121,-0.3041,-0.322,-0.3219,-0.3219,-0.29,-0.297,-0.3025,-0.3111,-0.317,-0.3241,-0.3266,-0.328,-0.3285,-0.3296,-0.3296,-0.3333,-0.3201,-0.3191,-0.3114,-0.3317,-0.3317,-0.3317,-0.3317,-0.2914,-0.2938,-0.3036,-0.3111,-0.3189,-0.3253,-0.3332,-0.3334,-0.3358,-0.3349,-0.3348,-0.3188,-0.3182,-0.3103,-0.332,-0.332,-0.3319,-0.3319,-0.3319,-0.2858,-0.2876,-0.2942,-0.3047,-0.3136,-0.3238,-0.3283,-0.3349,-0.3367,-0.3375,-0.3224,-0.322,-0.3141,-0.3381,-0.3381,-0.3381,-0.3381,-0.3381,-0.3381,-0.2746,-0.2821,-0.2848,-0.298,-0.3023,-0.3123,-0.3252,-0.3265,-0.3252,-0.323,-0.3228,-0.3126,-0.3351,-0.3337,-0.3381,-0.3381,-0.3381,-0.3381,-0.3381,-0.2634,-0.2672,-0.2707,-0.2749,-0.2871,-0.2871,-0.3063,-0.3044,-0.3091,-0.3025,-0.2936,-0.3143,-0.31,-0.3105,-0.3084,-0.306,-0.306,-0.306,-0.306,-0.2511,-0.2554,-0.2539,-0.2569,-0.2637,-0.274,-0.2636,-0.2682,-0.271,-0.2669,-0.2766,-0.2703,-0.2719,-0.2654,-0.2668,-0.2639,-0.2503,-0.2503,-0.2503,-0.2394,-0.243,-0.2353,-0.243,-0.25,-0.2527,-0.2341,-0.2284,-0.2373,-0.2483,-0.2705,-0.2729,-0.2646,-0.2678,-0.2583,-0.261,-0.2566,0,0]},{"header":{"parameterUnit":"m.s-1","parameterCategory":2,"la1":30.2992,"la2":30.254,"lo1":-89.0895,"lo2":-89.0443,"dy":0.0025,"dx":0.0025,"nx":19,"ny":19,"refTime":"2026-04-23T09:00:00:Z","depth":"0","parameterNumber":3,"parameterNumberName":"V-component_of_CURRENTS"},"data":[0,0,0,-0.0368,-0.0366,-0.0274,-0.0273,-0.0108,-0.0106,0,0,0,0,0,0,0,0,0,0,0,-0.0401,-0.0401,-0.0368,-0.0366,-0.0274,-0.0273,-0.0108,-0.0106,0,0,0,0,0,0,0,0,0,0,0,-0.0401,-0.0401,-0.04,-0.0366,-0.0274,-0.0273,-0.0108,-0.0185,0,0,0,0,0,0,0,0,0,0,-0.0279,-0.033,-0.0401,-0.04,-0.0366,-0.0274,-0.0273,-0.0189,-0.018,-0.0142,0,-0.0141,0,-0.0126,-0.0096,-0.0095,0,0,0,-0.0347,-0.0338,-0.0309,-0.04,-0.0365,-0.0275,-0.031,-0.0184,-0.0174,-0.013,-0.0139,-0.0133,-0.0123,-0.0095,-0.0094,0.0004,0.0004,0,0,-0.0352,-0.038,-0.0316,-0.0303,-0.0357,-0.0313,-0.0308,-0.0179,-0.0176,-0.0138,-0.0129,-0.012,-0.0094,-0.0093,0.0004,0.0004,0,0,0,-0.038,-0.0384,-0.0359,-0.031,-0.03,-0.0311,-0.0305,-0.0182,-0.0173,-0.0127,-0.0119,-0.0093,-0.0091,0.0005,0.0004,-0.0102,0,0,0,-0.0382,-0.0401,-0.0362,-0.0377,-0.0304,-0.0249,-0.0311,-0.0182,-0.0167,-0.0119,-0.0093,-0.0089,0.0005,0.0004,-0.0099,-0.0134,0,0,0,-0.0402,-0.0403,-0.0397,-0.0379,-0.0347,-0.0251,-0.0234,-0.0179,-0.0162,-0.0095,-0.0089,0.0005,0.0005,-0.0096,-0.0129,-0.0081,0,0,0,-0.0426,-0.0457,-0.0398,-0.0431,-0.0348,-0.0323,-0.0235,-0.02,-0.0153,-0.0092,0.0005,0.0004,-0.0095,-0.0126,-0.0079,0.0001,-0.0,0,0,-0.0486,-0.0465,-0.0486,-0.0432,-0.0447,-0.0333,-0.0319,-0.0218,-0.0137,-0.003,-0.0028,-0.01,-0.0128,-0.008,-0.0012,-0.0013,0,0,0,-0.0518,-0.0538,-0.0531,-0.0523,-0.0471,-0.041,-0.0305,-0.0236,-0.0142,-0.0112,-0.0074,-0.0088,-0.0054,-0.0002,-0.0003,0.0271,0.0003,0.0003,0.0003,-0.0628,-0.0606,-0.0644,-0.0607,-0.0573,-0.0454,-0.0388,-0.0268,-0.0194,-0.0164,-0.0157,-0.0169,-0.0117,-0.0116,0.0163,-0.0141,-0.0142,-0.0142,-0.0142,-0.0745,-0.0777,-0.0729,-0.0759,-0.0669,-0.0629,-0.0456,-0.038,-0.0245,-0.0207,-0.0169,-0.0096,-0.0123,0.0176,-0.0149,-0.0147,-0.0147,-0.0146,-0.0146,-0.0832,-0.0847,-0.0851,-0.0874,-0.0842,-0.073,-0.0651,-0.0512,-0.034,-0.0309,-0.0168,-0.0165,0.009,-0.0273,-0.0273,-0.0273,-0.0273,-0.0273,-0.0273,-0.0921,-0.0926,-0.0986,-0.0991,-0.0998,-0.0946,-0.076,-0.0637,-0.0399,-0.0252,-0.0249,0.0133,-0.0206,-0.0211,-0.0272,-0.0272,-0.0272,-0.0272,-0.0272,-0.1037,-0.1028,-0.1128,-0.1158,-0.1168,-0.1121,-0.0943,-0.0618,-0.0447,-0.0294,0.0193,-0.0182,-0.0117,-0.0115,-0.0114,-0.0147,-0.0147,-0.0147,-0.0147,-0.1105,-0.1114,-0.1235,-0.1299,-0.1321,-0.1202,-0.0977,-0.0595,-0.0007,0.0316,0.0399,0.046,0.0443,0.0545,0.0533,0.055,0.0686,0.0688,0.0689,-0.1173,-0.1207,-0.1297,-0.1355,-0.1388,-0.1262,-0.1001,-0.0478,0.038,0.075,0.0766,0.0731,0.0845,0.0796,0.0972,0.0933,0.0965,0,0]}],[{"header":{"parameterUnit":"m.s-1","parameterCategory":2,"la1":30.2992,"la2":30.254,"lo1":-89.0895,"lo2":-89.0443,"dy":0.0025,"dx":0.0025,"nx":19,"ny":19,"refTime":"2026-04-23T09:00:00:Z","depth":"2","parameterNumber":2,"parameterNumberName":"U-component_of_CURRENTS"},"data":[0,0,0,-0.2782,-0.2784,-0.2856,-0.2856,-0.2919,-0.292,0,0,0,0,0,0,0,0,0,0,0,-0.2744,-0.2745,-0.2782,-0.2784,-0.2856,-0.2856,-0.2919,-0.292,0,0,0,0,0,0,0,0,0,0,0,-0.2744,-0.2744,-0.2745,-0.2784,-0.2856,-0.2856,-0.2919,-0.287,0,0,0,0,0,0,0,0,0,0,-0.2803,-0.2766,-0.2744,-0.2745,-0.2785,-0.2856,-0.2856,-0.2868,-0.2873,-0.2881,0,-0.2889,0,-0.2915,-0.2924,-0.2924,0,0,0,-0.2777,-0.2762,-0.2794,-0.2745,-0.2785,-0.2856,-0.2822,-0.2871,-0.2877,-0.2887,-0.289,-0.2893,-0.2916,-0.2925,-0.2925,-0.3,-0.3,0,0,-0.2773,-0.2747,-0.279,-0.2797,-0.2801,-0.2819,-0.2824,-0.2875,-0.2872,-0.2891,-0.2895,-0.2917,-0.2925,-0.2926,-0.3,-0.3,0,0,0,-0.2766,-0.2744,-0.2774,-0.2794,-0.2814,-0.2822,-0.2827,-0.2869,-0.2883,-0.2896,-0.2918,-0.2925,-0.2926,-0.2999,-0.3,-0.3044,0,0,0,-0.2764,-0.2741,-0.2772,-0.2756,-0.2813,-0.2845,-0.2819,-0.2878,-0.2886,-0.2917,-0.2925,-0.2927,-0.2999,-0.3,-0.3042,-0.3036,0,0,0,-0.2742,-0.2738,-0.2748,-0.2754,-0.2792,-0.2845,-0.2861,-0.2881,-0.2899,-0.2925,-0.2927,-0.2999,-0.3,-0.304,-0.3033,-0.3036,0,0,0,-0.271,-0.2729,-0.2747,-0.2785,-0.2791,-0.2874,-0.2861,-0.2911,-0.2935,-0.2926,-0.2999,-0.3,-0.304,-0.3032,-0.3035,-0.2829,-0.2818,0,0,-0.2722,-0.273,-0.2759,-0.2778,-0.2857,-0.2863,-0.294,-0.2957,-0.2948,-0.2978,-0.298,-0.3043,-0.3033,-0.3036,-0.2878,-0.2865,0,0,0,-0.2757,-0.2772,-0.2801,-0.2849,-0.291,-0.2955,-0.2987,-0.2997,-0.3021,-0.2969,-0.3048,-0.3039,-0.304,-0.2914,-0.2904,-0.3004,-0.3004,-0.3004,-0.3004,-0.271,-0.2773,-0.2821,-0.29,-0.2954,-0.3023,-0.3048,-0.3063,-0.3069,-0.3081,-0.3081,-0.3116,-0.2983,-0.2973,-0.3099,-0.3099,-0.31,-0.31,-0.31,-0.2718,-0.2737,-0.2827,-0.2896,-0.2969,-0.303,-0.3105,-0.3112,-0.3137,-0.313,-0.313,-0.2972,-0.2964,-0.3103,-0.3103,-0.3102,-0.3102,-0.3102,-0.3101,-0.2664,-0.2679,-0.2742,-0.2835,-0.292,-0.3017,-0.3058,-0.3126,-0.3149,-0.3159,-0.3007,-0.3003,-0.3121,-0.3166,-0.3166,-0.3166,-0.3166,-0.3166,-0.3166,-0.2559,-0.2628,-0.2651,-0.2771,-0.2811,-0.2905,-0.3031,-0.3044,-0.3034,-0.3014,-0.3012,-0.3137,-0.3135,-0.3124,-0.3166,-0.3166,-0.3166,-0.3166,-0.3166,-0.2449,-0.2488,-0.2514,-0.2552,-0.266,-0.2649,-0.2836,-0.2819,-0.2869,-0.2805,-0.2921,-0.2927,-0.2882,-0.2886,-0.2868,-0.2843,-0.2843,-0.2842,-0.2842,-0.2335,-0.2374,-0.2352,-0.2372,-0.2425,-0.2514,-0.2392,-0.2397,-0.2503,-0.2499,-0.2514,-0.2451,-0.2471,-0.2401,-0.2417,-0.2388,-0.2238,-0.2237,-0.2236,-0.2222,-0.2252,-0.2173,-0.2238,-0.2289,-0.2299,-0.2081,-0.1911,-0.197,-0.2216,-0.245,-0.2794,-0.274,-0.2757,-0.2681,-0.2694,-0.2661,0,0]},{"header":{"parameterUnit":"m.s-1","parameterCategory":2,"la1":30.2992,"la2":30.254,"lo1":-89.0895,"lo2":-89.0443,"dy":0.0025,"dx":0.0025,"nx":19,"ny":19,"refTime":"2026-04-23T09:00:00:Z","depth":"2","parameterNumber":3,"parameterNumberName":"V-component_of_CURRENTS"},"data":[0,0,0,-0.0383,-0.0382,-0.0293,-0.0292,-0.0137,-0.0135,0,0,0,0,0,0,0,0,0,0,0,-0.0416,-0.0415,-0.0383,-0.0382,-0.0293,-0.0292,-0.0137,-0.0135,0,0,0,0,0,0,0,0,0,0,0,-0.0416,-0.0416,-0.0415,-0.0382,-0.0293,-0.0292,-0.0137,-0.0211,0,0,0,0,0,0,0,0,0,0,-0.0301,-0.0349,-0.0416,-0.0415,-0.0381,-0.0293,-0.0292,-0.0214,-0.0206,-0.0171,0,-0.0171,0,-0.0155,-0.0126,-0.0125,0,0,0,-0.0364,-0.0357,-0.0329,-0.0415,-0.0381,-0.0293,-0.0328,-0.021,-0.02,-0.016,-0.0169,-0.0163,-0.0153,-0.0125,-0.0124,-0.0036,-0.0036,0,0,-0.0369,-0.0396,-0.0336,-0.0324,-0.0373,-0.0331,-0.0325,-0.0204,-0.0203,-0.0168,-0.0159,-0.015,-0.0124,-0.0123,-0.0036,-0.0036,0,0,0,-0.0395,-0.04,-0.0376,-0.033,-0.032,-0.0329,-0.0322,-0.0208,-0.0199,-0.0158,-0.0148,-0.0123,-0.0121,-0.0036,-0.0036,-0.014,0,0,0,-0.0397,-0.0416,-0.0378,-0.0393,-0.0324,-0.027,-0.0329,-0.0208,-0.0194,-0.0149,-0.0123,-0.012,-0.0036,-0.0036,-0.0137,-0.0176,0,0,0,-0.0417,-0.0418,-0.0412,-0.0395,-0.0364,-0.0272,-0.0256,-0.0204,-0.0188,-0.0125,-0.012,-0.0036,-0.0036,-0.0135,-0.0171,-0.013,0,0,0,-0.044,-0.0468,-0.0413,-0.0443,-0.0365,-0.0341,-0.0257,-0.0223,-0.018,-0.0122,-0.0036,-0.0036,-0.0134,-0.0168,-0.0128,-0.0062,-0.0065,0,0,-0.0495,-0.0476,-0.0494,-0.0444,-0.0459,-0.0351,-0.034,-0.0244,-0.0166,-0.0069,-0.0067,-0.0138,-0.017,-0.013,-0.0078,-0.0081,0,0,0,-0.0525,-0.0543,-0.0537,-0.0531,-0.0481,-0.0428,-0.0328,-0.0265,-0.0177,-0.0143,-0.0115,-0.0131,-0.0102,-0.0057,-0.0059,-0.0038,-0.0038,-0.0038,-0.0038,-0.063,-0.0609,-0.0646,-0.0613,-0.0582,-0.0474,-0.0415,-0.0304,-0.023,-0.0203,-0.0199,-0.0217,-0.0173,-0.0173,-0.0182,-0.0182,-0.0182,-0.0183,-0.0183,-0.074,-0.0773,-0.0731,-0.0761,-0.0681,-0.0647,-0.0491,-0.0418,-0.0295,-0.0253,-0.022,-0.015,-0.0181,-0.0191,-0.0189,-0.0188,-0.0187,-0.0187,-0.0186,-0.0825,-0.0841,-0.0847,-0.0874,-0.0851,-0.075,-0.0686,-0.0554,-0.0391,-0.0363,-0.0233,-0.023,-0.0258,-0.0327,-0.0327,-0.0327,-0.0327,-0.0327,-0.0327,-0.0912,-0.0919,-0.0981,-0.099,-0.1002,-0.0961,-0.0795,-0.0684,-0.0461,-0.0321,-0.0318,-0.0264,-0.0259,-0.0262,-0.0327,-0.0327,-0.0327,-0.0327,-0.0327,-0.1026,-0.1019,-0.1119,-0.1152,-0.1172,-0.1138,-0.0976,-0.0681,-0.0523,-0.0381,-0.026,-0.0261,-0.0201,-0.0197,-0.0197,-0.0241,-0.0241,-0.0241,-0.0241,-0.1094,-0.1103,-0.1227,-0.1295,-0.1324,-0.122,-0.1024,-0.0685,-0.0365,-0.0204,-0.0206,-0.019,-0.0193,-0.0131,-0.0129,-0.0125,-0.0151,-0.0151,-0.0151,-0.1164,-0.1197,-0.1289,-0.1351,-0.1391,-0.1282,-0.1053,-0.0612,-0.0194,-0.0152,-0.0231,-0.0227,-0.0207,-0.0211,-0.0114,-0.0112,-0.0106,0,0]}],[{"header":{"parameterUnit":"m.s-1","parameterCategory":2,"la1":30.2992,"la2":30.254,"lo1":-89.0895,"lo2":-89.0443,"dy":0.0025,"dx":0.0025,"nx":19,"ny":19,"refTime":"2026-04-23T09:00:00:Z","depth":"4","parameterNumber":2,"parameterNumberName":"U-component_of_CURRENTS"},"data":[0,0,0,-0.2065,-0.2069,-0.225,-0.2251,-0.2365,-0.2366,0,0,0,0,0,0,0,0,0,0,0,-0.2005,-0.2006,-0.2065,-0.207,-0.225,-0.2251,-0.2365,-0.2366,0,0,0,0,0,0,0,0,0,0,0,-0.2004,-0.2006,-0.2008,-0.207,-0.225,-0.2251,-0.2365,-0.2258,0,0,0,0,0,0,0,0,0,0,-0.2097,-0.2061,-0.2006,-0.2008,-0.2071,-0.225,-0.2251,-0.2254,-0.2264,-0.225,0,-0.2289,0,-0.2328,-0.2371,-0.2371,0,0,0,-0.2069,-0.2053,-0.2098,-0.2008,-0.2073,-0.2249,-0.2168,-0.2261,-0.2272,-0.2264,-0.2291,-0.2297,-0.233,-0.2372,-0.2372,-0.2459,-0.246,0,0,-0.2059,-0.2037,-0.209,-0.2106,-0.2132,-0.2163,-0.2174,-0.2269,-0.2285,-0.2292,-0.23,-0.2332,-0.2372,-0.2373,-0.2459,-0.2459,0,0,0,-0.2031,-0.203,-0.2076,-0.21,-0.2141,-0.2168,-0.2181,-0.2281,-0.2296,-0.2301,-0.2333,-0.2373,-0.2374,-0.2459,-0.2459,-0.2508,0,0,0,-0.2025,-0.2014,-0.2072,-0.206,-0.2141,-0.223,-0.219,-0.229,-0.2302,-0.2332,-0.2373,-0.2374,-0.2458,-0.2459,-0.2506,-0.2497,0,0,0,-0.1995,-0.201,-0.2035,-0.2059,-0.2137,-0.223,-0.2252,-0.2294,-0.232,-0.2371,-0.2374,-0.2458,-0.2459,-0.2504,-0.2494,-0.2499,0,0,0,-0.196,-0.1999,-0.2035,-0.2096,-0.2135,-0.2244,-0.2252,-0.234,-0.2389,-0.2373,-0.2458,-0.2459,-0.2503,-0.2493,-0.2497,-0.2181,0,0,0,-0.1981,-0.2001,-0.2037,-0.2073,-0.2168,-0.2218,-0.2317,-0.2383,-0.2392,-0.2417,-0.2421,-0.2506,-0.2494,-0.2498,-0.2239,0,0,0,0,-0.2026,-0.2051,-0.2088,-0.2158,-0.2238,-0.2315,-0.2392,-0.2419,-0.2478,-0.2426,-0.2512,-0.2502,-0.2503,-0.2315,-0.2464,-0.2464,-0.2463,-0.2463,-0.2463,-0.1997,-0.2058,-0.212,-0.2206,-0.2279,-0.2391,-0.2443,-0.2489,-0.2511,-0.2544,-0.2547,-0.2586,-0.2392,-0.2568,-0.2568,-0.2569,-0.2569,-0.2569,-0.2569,-0.2001,-0.2022,-0.2127,-0.2211,-0.2309,-0.24,-0.2499,-0.2535,-0.2588,-0.2594,-0.2594,-0.2386,-0.2574,-0.2573,-0.2572,-0.2572,-0.2571,-0.2571,-0.2571,-0.1941,-0.1957,-0.2045,-0.2163,-0.2281,-0.2405,-0.2453,-0.2553,-0.2605,-0.2624,-0.2418,-0.2604,-0.2592,-0.2642,-0.2642,-0.2642,-0.2642,-0.2642,-0.2642,-0.1819,-0.1908,-0.196,-0.2108,-0.2176,-0.2287,-0.244,-0.2452,-0.2547,-0.2412,-0.264,-0.261,-0.2607,-0.2595,-0.2642,-0.2642,-0.2642,-0.2642,-0.2642,-0.1698,-0.1762,-0.1812,-0.188,-0.2021,-0.2076,-0.2277,-0.2252,-0.2247,-0.2174,-0.2287,-0.2305,-0.2246,-0.2252,-0.2225,-0.2165,-0.2161,-0.2157,0,-0.1586,-0.1631,-0.1659,-0.1703,-0.1742,-0.1921,-0.1841,-0.1912,-0.1987,-0.1928,-0.2239,-0.2368,-0.2378,-0.2315,-0.2314,-0.2281,0,0,0,-0.1483,-0.1517,-0.1477,-0.1563,-0.159,-0.1649,-0.1804,-0.1738,-0.2009,-0.1891,-0.2058,-0.2084,-0.241,-0.2642,-0.2594,-0.2591,-0.2568,0,0]},{"header":{"parameterUnit":"m.s-1","parameterCategory":2,"la1":30.2992,"la2":30.254,"lo1":-89.0895,"lo2":-89.0443,"dy":0.0025,"dx":0.0025,"nx":19,"ny":19,"refTime":"2026-04-23T09:00:00:Z","depth":"4","parameterNumber":3,"parameterNumberName":"V-component_of_CURRENTS"},"data":[0,0,0,-0.0278,-0.0278,-0.022,-0.022,-0.0103,-0.0102,0,0,0,0,0,0,0,0,0,0,0,-0.03,-0.03,-0.0278,-0.0278,-0.022,-0.022,-0.0104,-0.0102,0,0,0,0,0,0,0,0,0,0,0,-0.03,-0.03,-0.03,-0.0277,-0.022,-0.022,-0.0104,-0.0154,0,0,0,0,0,0,0,0,0,0,-0.0214,-0.0251,-0.03,-0.03,-0.0277,-0.022,-0.022,-0.0157,-0.0151,-0.0122,0,-0.0126,0,-0.0116,-0.0095,-0.0095,0,0,0,-0.0262,-0.0257,-0.0238,-0.03,-0.0277,-0.022,-0.0242,-0.0154,-0.0147,-0.0114,-0.0125,-0.012,-0.0114,-0.0094,-0.0094,-0.0032,-0.0033,0,0,-0.0265,-0.0287,-0.0243,-0.0234,-0.0277,-0.0244,-0.024,-0.015,-0.0151,-0.0124,-0.0118,-0.0113,-0.0094,-0.0093,-0.0032,-0.0032,0,0,0,-0.0285,-0.0289,-0.0273,-0.0239,-0.0234,-0.0242,-0.0238,-0.0154,-0.0149,-0.0116,-0.0111,-0.0093,-0.0092,-0.0032,-0.0032,-0.0131,0,0,0,-0.0286,-0.0302,-0.0275,-0.0287,-0.0237,-0.0201,-0.0245,-0.0155,-0.0145,-0.0112,-0.0093,-0.0091,-0.0032,-0.0032,-0.0128,-0.017,0,0,0,-0.03,-0.0303,-0.0301,-0.0288,-0.027,-0.0203,-0.0191,-0.0153,-0.0142,-0.0095,-0.009,-0.0032,-0.0032,-0.0125,-0.0165,-0.0142,0,0,0,-0.0316,-0.0338,-0.0302,-0.0326,-0.027,-0.0259,-0.0192,-0.017,-0.0138,-0.0092,-0.0032,-0.0032,-0.0125,-0.0162,-0.014,-0.0148,0,0,0,-0.0355,-0.0343,-0.0358,-0.0325,-0.0344,-0.0264,-0.0268,-0.0195,-0.0129,-0.0055,-0.0054,-0.0129,-0.0165,-0.0141,-0.0168,0,0,0,0,-0.0378,-0.0395,-0.0393,-0.0396,-0.0364,-0.034,-0.0264,-0.0216,-0.0152,-0.0113,-0.0108,-0.0127,-0.0109,-0.0107,-0.0034,-0.0034,-0.0034,-0.0034,-0.0034,-0.0455,-0.0445,-0.0482,-0.0468,-0.0453,-0.0385,-0.035,-0.0268,-0.0202,-0.0184,-0.0193,-0.0223,-0.0226,-0.0174,-0.0174,-0.0175,-0.0175,-0.0175,-0.0175,-0.0538,-0.0567,-0.0556,-0.059,-0.0551,-0.054,-0.0432,-0.0376,-0.0292,-0.0248,-0.0225,-0.0195,-0.0185,-0.0183,-0.0182,-0.018,-0.018,-0.0179,-0.0179,-0.0597,-0.0612,-0.0636,-0.0684,-0.0697,-0.064,-0.061,-0.0515,-0.0384,-0.037,-0.0304,-0.0263,-0.0268,-0.0343,-0.0343,-0.0343,-0.0343,-0.0343,-0.0343,-0.0646,-0.0671,-0.0741,-0.0781,-0.0815,-0.0811,-0.0712,-0.0632,-0.0497,-0.0405,-0.0383,-0.0278,-0.0273,-0.0275,-0.0345,-0.0345,-0.0344,-0.0344,-0.0344,-0.0715,-0.073,-0.0832,-0.0887,-0.0952,-0.0936,-0.0856,-0.0663,-0.0572,-0.046,-0.0393,-0.039,-0.0339,-0.0332,-0.0334,-0.0425,-0.0425,-0.0425,0,-0.0757,-0.0773,-0.0907,-0.0994,-0.104,-0.0999,-0.0879,-0.0755,-0.057,-0.0567,-0.0571,-0.0506,-0.0499,-0.0452,-0.0445,-0.0455,0,0,0,-0.0802,-0.0839,-0.0933,-0.1019,-0.1073,-0.0928,-0.0839,-0.0764,-0.0608,-0.0498,-0.0434,-0.0432,-0.0435,-0.035,-0.0264,-0.0257,-0.0255,0,0]}]]